Facebook Twitter

Wetterstation Braunschweig

Messwerte
  Temperatur Wetter Niederschlag Luftdruck Wind
Mi, 18:50 Uhr 21° - - 1002 hPa 21 km/h O
Mi, 18:20 Uhr 24° - - 1002 hPa 19 km/h O
Mi, 17:50 Uhr 24° - - 1002 hPa 19 km/h SO
Mi, 17:20 Uhr 25° - - 1002 hPa 19 km/h SO
Mi, 16:50 Uhr 24° - - 1002 hPa 13 km/h O
Mi, 16:20 Uhr 25° - - 1002 hPa 11 km/h O
Mi, 15:50 Uhr 26° - - 1002 hPa 19 km/h O
Mi, 15:20 Uhr 25° heiter - 1003 hPa 16 km/h O
Mi, 14:50 Uhr 23° Gewitter - 1003 hPa 14 km/h S
Mi, 14:20 Uhr 25° - - 1003 hPa 13 km/h S
Mi, 13:50 Uhr 27° - - 1004 hPa 11 km/h
Mi, 13:20 Uhr 27° - - 1004 hPa 11 km/h
Mi, 12:50 Uhr 27° - - 1004 hPa 10 km/h S
Mi, 12:20 Uhr 26° - - 1005 hPa 14 km/h S
Mi, 11:50 Uhr 26° - - 1005 hPa 13 km/h S
Mi, 11:20 Uhr 25° - - 1005 hPa 10 km/h S
Mi, 10:50 Uhr 25° - - 1005 hPa 13 km/h S
Mi, 10:20 Uhr 25° - - 1006 hPa 10 km/h SO
Mi, 09:50 Uhr 23° - - 1006 hPa 13 km/h O
Mi, 09:20 Uhr 22° - - 1006 hPa 10 km/h SO

Alle Zeitangaben MESZ